Tracking 30923 objects as of 1-Jul-2025
HD Live streaming from Space Station
objects crossing your sky now

STARLINK-30331

Track STARLINK-30331 now!
10-day predictions
STARLINK-30331 is classified as:


NORAD ID: 57740
Int'l Code: 2023-131J
Perigee: 489.5 km
Apogee: 491.0 km
Inclination: 43.0 °
Period: 94.3 minutes
Semi major axis: 6861 km
RCS: Unknown
Launch date: September 1, 2023
Source: United States (US)
Launch site: AIR FORCE EASTERN TEST RANGE (AFETR)
Your satellite tracking list
DELTA 1 DEB
Track 1 satellite(s)




NASA's NSSDC Master Catalog

Two Line Element Set (TLE):
1 57740U 23131J   25181.16054980 -.00000627  00000-0 -13286-4 0  9994
2 57740  42.9991  85.5499 0001116 270.7467  89.3257 15.27570438102156
Source of the keplerian elements: AFSPC